SCP
0 0 0 0 0 0 0 0 0 0 0 0 0 0 0 0 0 0 0 0 0 0 0 0 0 0 0 0 0 0 0 0 0 0 0 0 0 0 0 0 0 0 0 0 0 0 0 0 0
0 0 0 0 0 0 0 0 0 0 0 0 0 0 0 0 0 0 0 0 0 0 0 0 0 0 0 0 0 0 0 0 0 0 0 0 0 0 0 0 0 0 0 0 0 0 0 0 0
0 0 0 0 0 0 0 0 0 0 0 0 0 0 0 0 0 0 0 0 0 0 0 0 0 0 0 0 0 0 0 0 0 0 0 0 0 0 0 0 0 0 0 0 0 0 0 0 0
0 0 0 0 0 0 0 0 0 0 0 0 0 0 0 0 0 0 0 0 0 0 0 0 0 0 0 0 0 0 0 0 0 0 0 0 0 0 0 0 0 0 0 0 0 0 0 0 0
0 0 0 0 0 0 0 0 0 0 0 0 0 0 0 0 0 0 0 0 0 0 0 0 0 0 0 0 0 0 1 1 0 0 0 0 0 0 0 0 0 0 0 0 0 0 0 0 0
0 0 0 0 0 0 0 0 0 0 0 0 0 0 0 0 0 0 0 0 0 0 0 0 0 0 0 0 0 0 1 1 1 0 0 0 0 0 0 0 0 0 0 0 0 0 0 0 0
0 0 0 0 0 0 0 0 0 0 0 0 0 0 0 1 1 0 0 0 0 0 0 0 0 0 0 0 0 0 1 1 1 0 0 0 0 0 0 0 0 0 0 0 0 0 0 0 0
0 0 0 0 0 0 0 0 0 0 0 0 0 0 0 1 1 1 0 0 0 0 0 0 0 0 0 0 0 0 1 1 1 1 1 1 0 0 0 0 0 0 0 0 0 0 0 0 0
0 0 0 0 0 0 0 0 0 0 0 0 0 0 1 1 1 1 1 1 0 0 0 0 0 0 0 0 0 0 0 0 1 0 1 1 0 0 1 1 1 0 0 0 0 0 0 0 0
0 0 0 0 0 0 0 0 0 0 0 0 0 0 1 1 1 1 1 1 1 0 0 0 0 0 0 0 0 0 0 0 0 0 0 0 0 0 1 1 1 1 0 0 0 0 0 0 0
0 0 0 0 0 0 0 0 0 0 0 0 0 0 1 1 1 1 1 1 1 1 0 1 0 0 0 0 0 0 0 0 0 0 0 0 0 0 1 1 1 0 0 0 0 0 0 0 0
0 0 0 0 0 0 0 0 0 0 0 0 0 1 1 1 1 1 1 1 1 1 1 1 1 1 1 1 1 1 1 1 0 0 0 0 0 0 0 0 1 1 1 0 0 0 0 0 0
0 0 0 0 0 0 0 0 0 0 0 0 1 1 1 1 1 1 1 1 1 1 1 1 1 1 1 1 1 1 1 1 1 1 1 1 1 1 1 1 1 1 1 1 1 0 0 0 0
0 0 0 0 0 0 0 0 0 0 0 1 1 2 2 2 2 2 2 2 2 1 1 1 1 1 1 1 1 1 1 1 1 1 1 1 1 1 1 1 1 1 1 1 1 1 0 0 0
0 0 0 0 0 0 0 0 1 1 1 1 2 3 3 3 3 3 3 3 3 3 2 2 1 1 1 1 1 1 1 1 1 1 2 2 2 1 1 1 1 1 1 1 1 1 1 0 0
0 0 0 0 0 0 0 1 2 3 2 3 4 4 4 4 4 3 4 4 5 5 4 3 2 2 2 2 2 2 2 2 2 2 2 2 2 2 2 1 1 1 1 1 1 1 1 1 1
0 0 0 0 0 0 0 1 3 4 4 4 5 4 4 3 3 3 3 4 5 5 5 4 3 3 3 3 3 3 2 2 2 2 3 3 3 2 3 2 2 1 1 1 1 1 1 1 1
0 0 0 0 0 0 0 2 4 4 4 4 4 3 2 2 2 2 2 2 3 4 4 3 3 3 4 4 4 4 4 3 3 4 4 4 3 3 3 3 3 2 2 2 2 1 1 1 1
0 0 0 0 0 0 0 1 2 3 3 3 3 2 2 2 1 1 1 1 2 2 2 2 2 3 4 5 5 5 5 4 4 5 5 5 3 3 4 5 4 3 2 2 2 2 1 1 1
0 0 0 0 0 0 0 1 1 1 1 2 2 2 2 2 1 1 1 1 1 1 1 1 2 2 3 5 6 6 5 5 4 5 6 5 3 3 4 6 6 4 3 2 2 1 1 1 1
0 0 0 0 0 0 0 0 0 1 1 1 1 1 1 1 1 1 1 1 1 1 1 1 1 2 3 4 5 5 4 3 3 4 5 4 3 2 3 5 6 4 2 2 1 1 1 1 0
0 0 0 0 0 0 0 0 0 1 1 0 0 0 0 0 0 0 0 0 1 1 1 1 1 2 2 2 3 3 2 2 2 2 3 3 2 1 2 3 3 2 1 1 1 1 0 0 0
0 0 0 0 0 0 0 0 0 1 1 0 0 0 0 0 0 0 0 0 0 1 1 1 1 2 2 1 1 1 1 1 1 1 2 2 1 1 1 1 1 1 1 1 1 1 0 1 1
0 0 0 0 0 0 0 0 0 0 1 0 0 0 0 0 0 0 0 0 0 0 1 1 1 2 1 1 1 1 1 1 1 1 1 1 1 1 1 1 1 1 1 1 1 0 0 0 1
0 0 0 0 0 0 0 0 0 0 0 0 0 0 0 0 0 0 0 0 0 0 0 0 1 1 1 1 1 1 1 1 1 1 1 1 1 1 1 1 1 1 1 1 1 0 0 0 0
0 0 0 0 0 0 0 0 0 0 0 0 0 0 0 0 0 0 0 0 0 0 0 1 1 1 1 1 1 1 1 1 1 1 1 1 1 1 1 1 0 0 0 0 0 0 0 0 0
0 0 0 0 0 0 0 0 0 0 0 0 0 0 0 0 0 0 0 0 0 0 0 1 1 1 1 1 1 1 1 1 1 1 1 0 0 0 0 0 0 0 0 0 0 0 0 0 0
0 0 0 0 0 0 0 0 0 0 0 0 0 0 0 0 0 0 0 0 0 0 1 1 1 1 1 1 1 1 2 1 1 1 0 0 0 0 0 0 0 0 0 0 0 0 0 0 0
0 0 0 0 0 0 0 0 0 0 0 0 0 0 0 0 0 0 0 0 0 0 1 1 1 0 0 0 1 1 1 1 0 0 0 0 0 0 0 0 0 0 0 0 0 0 0 0 0
0 0 0 0 0 0 0 0 0 0 0 0 0 0 0 0 0 0 0 0 0 0 1 1 0 0 0 0 0 0 0 0 0 0 0 0 0 0 0 0 0 0 0 0 0 0 0 0 0
Wind_Speed
7 8 6 6 8 8 2 3 2 1 3 4 5 2 2 3 3 3 7 11 15 17 18 17 14 14 14 13 13 14 15 15 14 14 13 12 11 10 9 8 7 6 6 7 7 7 8 7 7
5 5 7 8 7 4 4 1 2 1 3 3 5 4 3 1 3 5 11 12 16 17 17 17 16 14 14 14 13 14 15 14 13 13 12 11 11 10 9 8 7 6 6 6 6 6 6 6 5
7 8 7 6 4 7 6 2 2 4 4 3 3 2 4 4 3 6 10 16 16 15 15 16 16 15 14 14 13 13 13 13 13 12 12 11 11 10 8 7 7 5 5 4 4 5 5 5 3
7 8 8 6 6 8 5 2 7 7 5 3 2 0 3 5 2 6 13 17 16 15 14 18 16 15 14 13 13 12 13 13 12 11 10 9 9 10 9 8 7 6 4 4 4 4 3 4 2
8 7 8 5 3 5 3 2 6 4 1 2 1 2 3 6 7 11 15 16 16 15 14 17 15 14 14 13 13 13 13 13 12 12 11 10 9 7 7 7 6 6 5 4 5 4 3 3 3
7 6 9 3 4 4 1 2 6 7 3 1 3 1 5 9 10 13 15 15 15 14 14 16 16 15 14 14 14 14 14 13 12 11 11 10 9 8 7 6 6 6 6 6 6 5 5 5 4
9 7 8 6 2 3 6 0 5 5 6 4 1 2 5 10 11 14 14 14 13 13 13 14 14 14 14 13 14 14 13 12 11 11 10 9 9 9 9 8 7 7 7 7 6 7 6 6 6
5 8 9 4 2 4 4 2 1 6 4 1 3 3 4 12 14 13 13 13 13 12 13 13 13 13 13 12 13 13 13 12 11 11 10 8 8 8 8 9 10 8 7 7 8 8 8 8 8
5 10 8 2 1 4 6 7 0 1 3 6 6 2 6 15 16 14 14 14 13 13 12 12 12 11 11 10 11 12 12 11 11 10 10 9 9 10 11 10 7 8 9 9 9 9 9 8 11
8 9 4 4 5 7 8 7 3 4 6 8 8 5 7 16 17 16 15 15 15 13 12 11 11 10 9 7 8 9 10 11 10 10 10 9 9 5 3 4 7 8 10 10 10 10 10 10 10
6 8 5 6 6 9 9 6 2 6 6 6 4 6 12 16 17 17 15 14 13 12 11 8 5 4 7 7 6 6 6 5 7 9 9 8 7 6 6 7 7 9 10 9 9 10 9 8 7
6 4 6 9 10 10 9 8 5 5 8 9 6 1 12 15 16 15 13 12 12 12 12 13 11 8 8 5 3 6 2 4 6 9 10 9 7 7 6 6 6 5 5 5 6 6 6 8 9
7 5 6 8 10 9 7 5 6 6 10 8 3 5 10 12 12 11 9 9 10 11 11 9 6 7 7 6 7 7 8 10 9 8 9 9 8 7 7 7 6 6 6 6 6 6 7 8 10
2 7 8 6 6 3 6 5 2 10 11 7 3 1 4 6 8 9 8 7 8 9 9 7 9 8 7 7 8 8 9 9 9 9 10 10 9 8 8 7 8 8 8 7 6 6 7 7 8
5 9 8 5 4 1 5 8 4 12 9 4 7 8 9 7 7 6 7 6 5 6 6 7 6 6 7 9 10 10 10 10 10 9 9 10 10 10 9 9 8 8 7 7 7 8 8 8 9
7 9 8 6 2 1 5 3 14 13 7 6 9 9 11 12 11 8 6 6 4 3 4 2 0 3 4 8 10 10 10 10 9 8 8 10 11 12 10 10 10 10 8 8 9 8 8 8 8
8 6 3 4 4 3 3 4 14 11 7 8 9 9 10 10 9 9 7 6 7 7 7 6 5 1 2 4 6 8 8 8 8 7 6 6 7 10 8 10 11 12 10 11 10 9 9 8 9
1 4 5 2 5 4 3 3 5 8 6 7 7 7 7 7 7 9 10 9 9 10 10 9 7 4 1 3 5 5 7 8 7 6 3 3 4 5 4 7 11 12 11 10 9 9 8 8 8
2 4 4 2 3 7 2 2 2 4 4 4 5 3 5 6 6 7 8 10 10 10 9 9 8 10 9 6 6 6 6 6 6 7 7 5 3 4 4 5 7 9 10 9 8 8 10 9 7
2 4 2 3 2 7 8 7 4 1 2 3 3 3 2 5 7 7 6 6 8 9 10 10 9 7 5 2 3 3 3 2 8 9 8 7 4 4 6 7 5 4 7 9 8 8 9 9 7
3 5 6 10 10 13 11 13 12 9 6 4 4 5 3 1 3 4 6 8 9 10 11 10 10 8 5 3 2 3 1 2 9 12 11 9 5 3 5 9 9 6 6 6 6 7 9 9 8
7 2 7 12 14 12 8 16 8 14 11 8 6 7 6 5 2 3 5 8 9 9 9 8 9 8 6 5 5 10 11 13 13 9 5 6 11 11 7 1 5 1 4 5 5 5 7 7 7
6 4 9 13 14 14 12 11 4 8 10 9 7 6 3 1 2 5 7 9 12 13 12 11 11 11 9 7 11 13 14 13 7 5 6 4 6 10 8 6 6 6 5 4 6 4 5 5 6
4 8 13 12 11 12 1 5 5 6 3 6 5 3 1 2 3 5 6 8 10 11 12 13 14 14 12 12 15 16 14 10 7 8 7 5 5 6 7 7 7 6 5 5 6 4 7 7 6
5 10 11 7 8 2 5 7 4 7 3 1 2 4 5 6 7 8 8 8 10 12 13 13 14 14 13 12 12 14 14 13 13 10 8 5 4 4 6 8 7 6 5 5 5 6 8 6 6
5 8 8 9 11 11 9 8 2 4 2 3 5 7 9 10 9 9 9 8 9 12 13 13 14 13 12 11 11 11 14 13 12 10 6 5 3 3 4 5 7 7 7 6 5 5 4 4 5
4 5 6 10 11 11 7 2 3 7 6 6 8 9 10 10 10 10 9 9 10 11 11 11 11 10 11 12 12 10 10 11 9 8 7 5 4 6 5 3 4 5 4 5 5 3 4 4 4
3 4 5 6 8 9 10 9 5 6 4 4 8 11 9 9 9 9 9 10 9 7 6 6 7 9 10 14 13 6 5 4 5 8 8 8 6 4 4 4 4 4 3 2 4 3 3 4 1
4 5 4 6 8 10 12 7 4 4 9 8 12 13 10 9 9 8 8 9 6 2 4 3 6 8 12 13 13 7 4 4 2 2 4 5 5 5 5 5 4 4 5 5 4 4 3 2 1
7 9 8 9 11 11 12 13 7 7 9 12 17 12 10 9 8 8 8 7 5 3 2 2 3 2 6 10 11 7 6 4 3 6 5 6 6 5 5 5 4 4 5 5 5 5 5 4 3
Wind_Direction
197 203 232 234 233 238 84 63 6 123 113 99 138 177 320 332 332 34 127 146 150 148 145 159 163 165 162 154 146 139 139 144 146 146 148 149 149 147 143 140 135 124 112 106 108 110 107 104 107
210 216 227 241 268 301 85 66 254 26 60 143 160 219 270 50 54 117 151 157 156 148 148 157 159 164 163 155 152 148 146 148 151 152 153 155 153 149 146 142 138 132 120 108 103 108 112 113 122
226 237 262 268 298 6 18 43 108 112 136 180 183 261 351 35 90 149 143 153 155 144 145 141 155 162 163 158 157 154 151 154 157 159 159 164 164 158 153 146 143 144 141 133 118 115 121 131 129
238 226 235 267 1 32 5 86 131 143 146 161 266 42 68 29 85 137 142 150 152 145 147 134 158 160 161 160 158 159 156 161 165 166 166 169 169 168 166 163 160 162 162 158 146 134 140 149 150
237 254 258 252 43 33 41 118 182 189 36 56 277 13 67 82 101 130 146 152 155 151 147 139 158 159 161 164 164 166 163 166 171 174 173 173 172 173 172 172 177 176 174 162 144 154 161 171 185
241 247 266 285 36 21 29 170 231 226 258 277 247 286 96 120 140 144 153 157 158 155 149 146 161 166 168 172 175 177 175 174 175 178 179 179 178 180 185 196 206 196 189 185 176 183 189 205 223
268 271 281 311 344 68 42 338 237 262 254 247 239 294 109 155 152 153 158 158 161 159 154 151 166 173 179 184 187 186 183 183 184 187 189 189 188 192 197 205 224 225 219 215 202 206 209 217 228
283 272 266 254 238 100 51 308 280 245 226 177 215 254 117 149 152 158 160 162 167 166 163 159 174 176 187 190 194 196 193 192 194 198 200 204 207 210 211 213 218 227 239 241 237 232 231 234 239
248 255 253 243 257 70 19 334 65 232 202 207 216 292 75 138 156 162 167 169 174 175 171 171 180 180 193 195 187 202 203 203 204 208 208 215 223 209 209 207 192 220 242 249 252 250 246 246 245
240 253 288 13 330 348 349 330 339 228 212 227 222 161 132 151 165 171 176 177 178 179 177 186 182 179 195 205 186 203 208 210 211 216 217 217 232 239 267 233 192 235 246 248 248 248 247 244 246
239 265 328 298 316 322 322 319 283 287 261 245 256 178 158 168 175 178 179 181 178 184 184 184 191 172 214 213 210 211 217 222 220 223 235 236 241 232 225 230 211 222 222 236 230 229 234 247 263
245 242 276 289 304 304 316 326 303 288 318 9 351 162 166 179 181 181 177 180 179 190 198 175 177 194 221 235 266 280 290 262 248 231 224 235 235 239 244 255 249 248 244 246 256 260 268 273 274
239 262 273 272 284 298 301 296 324 332 1 1 354 159 175 181 171 172 173 175 178 191 207 171 186 217 223 224 232 235 236 231 234 241 235 237 244 247 244 250 259 262 263 250 246 266 274 281 271
315 284 275 273 278 290 284 285 320 18 354 349 351 106 129 147 154 156 162 166 176 190 202 198 195 209 230 235 242 251 250 257 251 244 241 234 243 254 260 252 250 253 261 275 290 286 285 277 276
257 262 238 216 252 282 286 250 56 357 348 358 51 62 79 100 129 147 147 150 184 186 188 209 220 226 226 234 239 239 247 250 254 251 245 243 245 249 253 265 263 258 256 266 270 263 257 259 260
239 236 232 128 296 56 279 244 47 360 15 56 75 91 95 72 62 67 91 135 158 120 113 127 38 287 249 239 243 244 245 247 252 255 250 241 246 255 260 264 267 273 269 260 258 262 267 267 268
203 224 214 137 67 337 292 349 33 18 51 79 81 90 102 103 99 99 108 129 125 114 107 104 89 15 302 261 247 253 252 248 247 247 259 281 282 279 280 280 282 282 282 270 264 264 267 277 273
171 239 205 209 54 325 332 43 30 26 45 88 104 115 128 137 143 144 148 151 147 140 138 137 139 127 81 301 264 245 246 237 234 234 238 275 285 294 296 267 273 279 273 281 285 281 278 264 269
260 250 259 110 23 311 303 304 32 18 31 67 66 81 135 147 152 157 168 175 177 187 188 187 191 182 179 186 230 233 234 249 249 217 208 212 222 213 185 205 245 269 265 268 278 274 269 271 284
201 238 268 245 178 298 296 279 149 136 79 42 72 112 157 179 188 194 214 247 263 269 272 282 289 295 274 220 219 217 172 215 251 244 221 205 218 252 224 170 173 226 259 260 261 271 279 279 269
230 307 326 307 306 274 263 260 174 165 143 124 95 99 116 171 249 256 264 273 273 274 281 290 295 305 313 327 340 319 97 176 243 239 227 211 188 236 255 220 139 169 233 250 256 266 275 283 281
298 29 296 292 293 298 304 287 225 165 160 145 133 116 107 102 82 5 326 316 313 313 308 305 303 294 272 248 225 235 238 239 242 243 224 208 184 167 131 52 81 170 257 264 267 262 281 283 284
326 336 288 287 284 285 262 254 246 156 187 161 156 143 130 112 315 320 317 316 317 318 317 315 311 306 298 272 254 252 251 252 243 234 213 200 207 196 172 171 192 190 217 243 257 267 272 282 286
306 276 268 255 260 261 252 290 271 130 179 159 164 169 226 293 297 302 300 298 301 303 304 306 305 303 298 278 262 253 250 250 213 194 197 190 189 182 191 198 202 194 194 222 243 253 256 261 278
282 308 295 255 243 293 72 287 302 93 131 181 278 293 296 297 295 297 301 305 304 303 298 290 287 288 288 276 259 247 236 217 214 214 213 197 193 186 189 198 189 188 187 205 238 240 250 256 267
1 317 321 316 311 318 298 272 56 104 173 244 272 282 284 283 280 285 297 304 304 304 300 294 284 285 295 293 273 260 246 233 230 218 199 191 187 124 150 199 183 183 188 199 219 235 245 250 251
309 330 337 294 274 271 270 273 245 159 210 231 259 277 289 295 295 291 294 294 297 304 314 329 324 322 314 314 307 279 248 231 210 189 174 171 152 124 125 165 172 164 182 199 207 221 222 234 252
321 356 288 277 297 297 300 288 232 169 234 296 322 318 305 295 287 288 292 290 297 309 356 37 56 36 11 355 338 279 193 162 179 185 180 141 138 137 149 133 109 102 119 179 226 203 200 218 266
231 222 235 295 294 294 290 297 77 285 286 293 309 316 304 296 298 296 290 289 277 271 94 130 80 61 42 21 22 35 90 107 91 233 161 131 150 164 156 133 137 155 156 157 174 182 170 169 96
270 276 272 278 276 260 274 282 300 307 288 280 293 301 294 288 288 289 289 275 229 216 219 199 143 73 62 48 27 47 58 59 194 190 180 167 170 175 169 159 163 167 148 138 154 155 125 107 86